Regional Weather Roundup
Issued by NWS

Home | Current Version | Previous Version | Graphics & Text | Print | Product List | Glossary On
Versions: 1 2 3 4 5 6 7 8 9 10 11 12 13 14 15 16 17 18 19 20 21 22 23 24 25 26 27 28 29 30 31 32 33 34 35 36 37 38 39 40 41 42 43 44 45 46 47 48 49 50
000
ASUS43 KLSX 280057
RWRMO

WEATHER SUMMARY FOR MISSOURI
NATIONAL WEATHER SERVICE SPRINGFIELD MO
800 PM CDT WED JUL 27 2016

NOTE: "FAIR" INDICATES FEW OR NO CLOUDS BELOW 12,000 FEET WITH NO
       SIGNIFICANT WEATHER AND/OR OBSTRUCTIONS TO VISIBILITY.
       CURRENT SKY AND/OR WEATHER CONDITIONS ARE NOT AVAILABLE FOR
       CHILLICOTHE AND FARMINGTON.

MOZ001>031-035>038-043-044-053-054-280200-
...NORTHERN AND WESTERN MISSOURI...

CITY           SKY/WX    TMP DP  RH WIND       PRES   REMARKS
KANSAS CTY INT MOCLDY    85  71  63 W3        29.91S HX  90
LEE`S SUMMIT   CLOUDY    86  73  65 E5        29.91S HX  93
ST JOSEPH      PTCLDY    85  71  63 CALM      29.90R HX  90

$$
MOZ066>068-077>081-088>096-101>105-280200-
...SOUTHWEST MISSOURI...

CITY           SKY/WX    TMP DP  RH WIND       PRES   REMARKS
SPRINGFIELD    CLOUDY    81  74  79 CALM      29.95R
JOPLIN         CLEAR     79  72  79 SE12      29.93S
BRANSON        MOCLDY    81  77  89 CALM      29.96R

$$
MOZ032>034-039>042-045>050-055>058-069>072-280200-
...CENTRAL MISSOURI...

CITY           SKY/WX    TMP DP  RH WIND       PRES   REMARKS
COLUMBIA       NOT AVBL
JEFFERSON CITY CLOUDY    85  78  80 CALM      29.87F HX  96
ROLLA          CLOUDY    82  74  76 SW5       29.91F
SEDALIA        CLEAR     85  73  67 CALM      29.91S HX  91

$$
MOZ051-052-059>065-280200-
...EAST CENTRAL MISSOURI...

CITY           SKY/WX    TMP DP  RH WIND       PRES   REMARKS
ST LOUIS INTL  MOCLDY    85  72  65 S7        29.90S THUNDER HX  91

$$
MOZ072>076-082>087-097>100-106>115-280200-
...SOUTH CENTRAL AND SOUTHEAST MISSOURI...

CITY           SKY/WX    TMP DP  RH WIND       PRES   REMARKS
CAPE GIRARDEAU CLOUDY    76  70  82 S7        29.89F
POPLAR BLUFF   LGT RAIN  77  75  93 NE5       29.92R FOG
WEST PLAINS    CLOUDY    74  70  87 W6        29.97F

$$



USA.gov is the U.S. government's official web portal to all federal, state and local government web resources and services.